Shirley, NY

2:39 PM EDT on September 26, 2017 (GMT -0400)
Brookhaven

Weather History for KHWV - August, 2013

Change the Weather History Date:

Monday, August 12, 2013

  Actual Average (KISP) Record (KISP)
Temperature  
Mean Temperature 72 °F -  
Max Temperature 77 °F 79 °F 90 °F (2016)
Min Temperature 64 °F 65 °F 50 °F (1968)
Cooling Degree Days 6    
Growing Degree Days 22 (Base 50)    
Moisture  
Dew Point 68 °F    
Average Humidity 87    
Maximum Humidity 97    
Minimum Humidity 76    
Precipitation  
Precipitation 0.08 in - - ()
Sea Level Pressure  
Sea Level Pressure 30.01 in    
Wind  
Wind Speed 3 mph (South)    
Max Wind Speed 6 mph    
Max Gust Speed -    
Visibility 9 miles    
Events Rain    
Averages and records for this station are not official NWS values.
T = Trace of Precipitation, MM = Missing Value Source: NWS Daily Summary

Daily Weather History Graph

Daily Weather History Graph

Search for Another Location

Airport or City:

Trip Planner

Search our weather history database for the weather conditions in past years. The results will help you decide how hot, cold, wet, or windy it might be!

Date:

Astronomy

Aug. 12, 2013 Rise Set
Actual Time 5:58 AM EDT 7:53 PM EDT
Civil Twilight 5:29 AM EDT 8:22 PM EDT
Nautical Twilight 4:52 AM EDT 8:59 PM EDT
Astronomical Twilight 4:13 AM EDT 9:37 PM EDT
Moon 11:49 AM EDT (8/12) 10:41 PM EDT (8/12)
Length of Visible Light 14h 53m
Length of Day
13h 54m
Waxing Crescent, 31% of the Moon is Illuminated
Aug 12
Waxing Crescent
Aug 14
First Quarter
Aug 20
Full
Aug 28
Last Quarter
Sep 5
New

Hourly Weather History & Observations

Time (EDT) Temp. Dew Point Humidity Pressure Visibility Wind Dir Wind Speed Gust Speed Precip Events Conditions
12:56 AM 70.0 °F 63.0 °F 78% 30.05 in 10.0 mi SSW 4.6 mph - N/A   Scattered Clouds
1:56 AM 71.1 °F 64.9 °F 81% 30.04 in 10.0 mi South 4.6 mph - N/A   Overcast
2:56 AM 71.1 °F 66.0 °F 84% 30.03 in 10.0 mi South 3.5 mph - 0.00 in   Overcast
3:56 AM 71.1 °F 66.9 °F 87% 30.03 in 10.0 mi South 4.6 mph - 0.00 in   Mostly Cloudy
4:56 AM 70.0 °F 66.9 °F 90% 30.02 in 10.0 mi South 3.5 mph - N/A   Partly Cloudy
5:56 AM 69.1 °F 66.9 °F 93% 30.02 in 10.0 mi Calm Calm - N/A   Overcast
6:21 AM 69.8 °F 66.2 °F 88% 30.02 in 10.0 mi SSE 4.6 mph - N/A   Overcast
6:52 AM 71.6 °F 69.8 °F 94% 30.02 in 10.0 mi South 3.5 mph - N/A   Overcast
6:56 AM 72.0 °F 70.0 °F 93% 30.02 in 10.0 mi South 3.5 mph - N/A   Overcast
7:05 AM 71.6 °F 69.8 °F 94% 30.03 in 10.0 mi Calm Calm - N/A   Overcast
7:15 AM 71.6 °F 69.8 °F 94% 30.03 in 10.0 mi Calm Calm - N/A   Overcast
7:44 AM 73.4 °F 69.8 °F 88% 30.03 in 9.0 mi Calm Calm - N/A   Overcast
7:56 AM 73.0 °F 70.0 °F 90% 30.03 in 9.0 mi Calm Calm - N/A   Overcast
8:49 AM 71.6 °F 69.8 °F 94% 30.03 in 4.0 mi North 3.5 mph - 0.02 in Rain Light Rain
8:56 AM 72.0 °F 69.1 °F 91% 30.03 in 4.0 mi North 3.5 mph - 0.02 in Rain Light Rain
9:15 AM 71.6 °F 69.8 °F 94% 30.04 in 2.5 mi NNW 5.8 mph - 0.02 in Rain Light Rain
9:22 AM 71.6 °F 69.8 °F 94% 30.04 in 4.0 mi NNW 4.6 mph - 0.03 in Rain Light Rain
9:48 AM 73.4 °F 69.8 °F 88% 30.03 in 6.0 mi North 4.6 mph - 0.05 in Rain Light Rain
9:56 AM 71.1 °F 69.1 °F 93% 30.03 in 7.0 mi North 3.5 mph - 0.05 in Rain Light Rain
10:56 AM 73.9 °F 69.1 °F 85% 30.03 in 10.0 mi Calm Calm - 0.00 in   Overcast
11:56 AM 73.9 °F 68.0 °F 82% 30.02 in 10.0 mi Calm Calm - N/A   Overcast
12:56 PM 73.0 °F 68.0 °F 84% 30.01 in 10.0 mi Calm Calm - N/A   Overcast
1:56 PM 73.9 °F 69.1 °F 85% 30.00 in 10.0 mi Calm Calm - N/A   Overcast
2:56 PM 75.0 °F 66.9 °F 76% 30.00 in 10.0 mi Calm Calm - 0.01 in   Overcast
3:56 PM 75.9 °F 68.0 °F 76% 29.99 in 10.0 mi Calm Calm - N/A   Mostly Cloudy
4:14 PM 75.2 °F 69.8 °F 83% 29.98 in 10.0 mi Calm Calm - N/A   Overcast
4:56 PM 75.9 °F 68.0 °F 76% 29.97 in 10.0 mi SSE 4.6 mph - N/A   Overcast
5:15 PM 77.0 °F 69.8 °F 78% 29.97 in 10.0 mi Variable 3.5 mph - N/A   Mostly Cloudy
5:56 PM 75.9 °F 68.0 °F 76% 29.96 in 10.0 mi SSE 5.8 mph - N/A   Scattered Clouds
6:56 PM 75.0 °F 66.9 °F 76% 29.96 in 10.0 mi South 4.6 mph - N/A   Clear
7:56 PM 72.0 °F 66.0 °F 81% 29.96 in 10.0 mi SE 3.5 mph - N/A   Clear
8:56 PM 69.1 °F 66.0 °F 90% 29.95 in 10.0 mi Calm Calm - N/A   Clear
9:56 PM 68.0 °F 64.9 °F 90% 29.95 in 6.0 mi Calm Calm - N/A   Clear
10:56 PM 66.9 °F 64.9 °F 93% 29.95 in 4.0 mi Calm Calm - N/A   Clear
11:56 PM 64.9 °F 64.0 °F 97% 29.95 in 4.0 mi Calm Calm - N/A   Clear